This is the latest recevied weather packets stored in our database for station/object K6HFP. If no packets are shown the sender has not sent any weather packets the latest 10 day(s).
| Time | Temp. | Humidity | Pressure | Rain* | Wind** | Luminosity | Snow |
|---|---|---|---|---|---|---|---|
| 1777921396 | 12.22° C | 88% | 1014.1 hPa | 0 mm | - | 169 W/m² | - |
| 1777921093 | 11.67° C | 88% | 1014.1 hPa | 0 mm | - | 139 W/m² | - |
| 1777920790 | 11.67° C | 88% | 1014.2 hPa | 0 mm | - | 116 W/m² | - |
| 1777920486 | 11.67° C | 88% | 1014.3 hPa | 0 mm | - | 120 W/m² | - |
| 1777920181 | 11.67° C | 89% | 1014.2 hPa | 0 mm | - | 124 W/m² | - |
| 1777919877 | 11.67° C | 89% | 1014.3 hPa | 0 mm | - | 113 W/m² | - |
| 1777919574 | 11.67° C | 89% | 1014.6 hPa | 0 mm | - | 99 W/m² | - |
| 1777919273 | 11.67° C | 89% | 1014.4 hPa | 0 mm | - | 81 W/m² | - |
| 1777918969 | 11.67° C | 89% | 1014.3 hPa | 0 mm | - | 69 W/m² | - |
| 1777918667 | 11.67° C | 89% | 1014.6 hPa | 0 mm | - | 59 W/m² | - |
| 1777918364 | 11.67° C | 89% | 1014.4 hPa | 0 mm | - | 63 W/m² | - |
| 1777918063 | 11.67° C | 90% | 1014.3 hPa | 0 mm | - | 82 W/m² | - |
| 1777917762 | 11.67° C | 89% | 1014.3 hPa | 0 mm | - | 93 W/m² | - |
| 1777917459 | 11.67° C | 89% | 1014.1 hPa | 0 mm | - | 148 W/m² | - |
| 1777917155 | 11.67° C | 90% | 1013.9 hPa | 0 mm | - | 195 W/m² | - |
| 1777916853 | 11.67° C | 89% | 1013.9 hPa | 0 mm | - | 235 W/m² | - |
| 1777916551 | 11.67° C | 90% | 1014 hPa | 0 mm | - | 131 W/m² | - |
| 1777916247 | 11.67° C | 89% | 1014.1 hPa | 0 mm | - | 131 W/m² | - |
| 1777915944 | 11.11° C | 89% | 1014.1 hPa | 0 mm | - | 196 W/m² | - |
| 1777915641 | 11.11° C | 89% | 1014.1 hPa | 0 mm | - | 119 W/m² | - |
| 1777915337 | 11.67° C | 89% | 1014 hPa | 0 mm | - | 95 W/m² | - |
| 1777915034 | 11.67° C | 89% | 1013.8 hPa | 0 mm | - | 118 W/m² | - |
| 1777914731 | 11.67° C | 88% | 1013.6 hPa | 0 mm | - | 141 W/m² | - |
| 1777914428 | 11.67° C | 87% | 1013.7 hPa | 0 mm | - | 161 W/m² | - |
| 1777914125 | 11.67° C | 87% | 1013.7 hPa | 0 mm | - | 98 W/m² | - |
* Rain latest hour (hover to see other rain measurements)
** Current wind speed in m/s (hover to see current wind gust speed)